Location: Gellin
(53.4498°N, 14.3207°E)
Time: 21:53:23
(UTC+00:00)

Cosmos 1777 Rocket - Pass Details

Date: 03 March 2021
Orbit: 759 x 775 km, 74.0° (Epoch: 12 April)

Event Time Altitude Azimuth Distance (km) Brightness Sun altitude
Rises 18:26:19 0° 333° (NNW) 3,254 7.8 -15.9°
Reaches altitude 10° 18:28:43 10° 334° (NNW) 2,320 7.0 -16.2°
Maximum altitude 18:34:00 84° 64° (ENE) 777 3.9 -17.0°
Enters shadow 18:38:04 17° 152° (SSE) 1,851 5.6 -17.6°
